Regional Weather Roundup
Issued by NWS Grand Forks, ND

Home | Current Version | Previous Version | Graphics & Text | Print | Product List | Glossary On
Versions: 1 2 3 4 5 6 7 8 9 10 11 12 13 14 15 16 17 18 19 20 21 22 23 24 25 26 27 28 29 30 31 32 33 34 35 36 37 38 39 40 41 42 43 44 45 46 47 48 49 50
000
ASUS43 KFGF 020110
RWRFGF
PRAIRIE TO PINES  WEATHER ROUNDUP
NATIONAL WEATHER SERVICE EASTERN NORTH DAKOTA/GRAND FORKS ND
800 PM CDT WED JUL 01 2015

 **SATELLITE DATA USED TO AUGMENT SKY COVER AT AUTOMATED STATIONS**
 *****  WEATHER ACROSS EASTERN NORTH DAKOTA  *****

CITY           SKY/WX    TMP DP  RH WIND       PRES   REMARKS
GRAND FORKS    MOSUNNY   75  63  66 S5        29.92S HAZE
GRAND FRKS AFB SUNNY     73  63  70 S8        29.93S
GRAND FRKS NWS   N/A     73 N/A N/A S7          N/A
DEVILS LAKE    MOSUNNY   73  59  60 SE6       29.93R
FARGO          SUNNY     72  56  57 S10       29.94F
WAHPETON ARPT  CLEAR     68  55  64 S6        29.96F
$$

 ***** WEATHER ACROSS CENTRAL AND WESTERN NORTH DAKOTA  *****

CITY           SKY/WX    TMP DP  RH WIND       PRES   REMARKS
BISMARCK       CLOUDY    74  67  78 E6        29.94R
MINOT          MOSUNNY   72  63  73 N6        29.93S
JAMESTOWN      SUNNY     73  63  70 SE8       29.94R
MINOT AFB      MOSUNNY   73  70  92 NE5       29.93S
GARRISON         N/A     74  64  71 NE3       29.94S
WILLISTON      CLOUDY    75  58  55 NW3       29.96R HAZE
DICKINSON      PTSUNNY   72  61  68 CALM      29.96F
HETTINGER      PTSUNNY   73  62  68 N5        29.98F
$$

 *****  OTHER AIRPORT OBSERVATIONS IN OUR AREA  *****

CITY           SKY/WX    TMP DP  RH WIND       PRES   REMARKS
WALHALLA       FAIR      75  61  60 MISG      29.92S
GRAFTON AIRPOR FAIR      75  61  60 S6        29.93S
VALLEY CITY AR FAIR      72  64  78 SE10      29.95S
CANDO          FAIR      73  59  60 SE5       29.94S
CAVALIER APRT  FAIR      77  59  53 SE5       29.92S
GWINNER        FAIR     N/A N/A N/A SE8       29.95S
SHEYENNE NWR     N/A     71  58  62 SE7       29.95S
ROLLA          FAIR      70  64  83 S3        29.96S
 ***** THE ABOVE OBSERVATIONS ARE NON NWS ARE NOT QUALITY
       CONTROLLED AND MAY MIS-REPORT RAIN FOR SNOW...
$$

  *****  WEATHER ACROSS NORTHERN MINNESOTA  *****

CITY           SKY/WX    TMP DP  RH WIND       PRES   REMARKS
FLAG ISLAND    PTSUNNY   72  64  78 S5        29.92S
WARROAD        PTSUNNY   73  63  68 CALM      29.94S
ROSEAU         PTSUNNY   73  63  68 CALM      29.94S
HALLOCK        NOT AVBL
THF RVR FALLS  MOSUNNY   73  61  64 SW6       29.95S
BAUDETTE         N/A     74  60  61 CALM      29.94S
WASKISH        PTSUNNY   73  59  60 CALM      29.96R
CROOKSTON      SUNNY     75  63  64 SW5       29.95S
$$
  *****  WEATHER ACROSS CENTRAL AND WEST MINNESOTA  *****

CITY           SKY/WX    TMP DP  RH WIND       PRES   REMARKS
FOSSTON        SUNNY     72  59  64 CALM      29.97S
BEMIDJI        CLOUDY    71  61  71 CALM      29.97R
PARK RAPIDS    CLOUDY    73  56  54 SW6       29.98R
ELBOW LAKE     FAIR      68  55  62 S7        29.98S
WADENA           N/A     72  54  53 SW5       29.99S
DETROIT LAKES  SUNNY     72  54  53 SW5       30.00R
MOORHEAD       SUNNY     72  57  60 S6        29.96S
FERGUS FALLS   SUNNY     70  55  60 S7        29.97S
MORRIS MN      SUNNY     70  55  60 SE6       29.98S
STAPLES        SUNNY     72  54  53 SW5       29.99S
$$
  *****  WEATHER ELSEWHERE ACROSS MINNESOTA  *****

CITY           SKY/WX    TMP DP  RH WIND       PRES   REMARKS
DULUTH         MOCLDY    66  51  58 SE7       30.00R
INTRNTL FALLS  MOSUNNY   70  59  68 SE5       29.95S
ELY            CLEAR     70  54  56 S3        29.99R
CLOQUET        PTCLDY    70  54  56 CALM      30.00R
WHEATON        SUNNY     66  54  63 SE7       29.98F
BRAINERD       MOSUNNY   72  54  53 S7        29.99S
HIBBING        PTCLDY    71  58  63 CALM      29.98R
ALEXANDRIA     SUNNY     69  56  62 S7        30.01S
SAINT CLOUD    CLEAR     70  52  52 S5        29.99S
MINNEAPOLIS    PTCLDY    71  53  52 W7        29.99R
$$

  *****  WEATHER ACROSS SOUTH DAKOTA  *****

CITY           SKY/WX    TMP DP  RH WIND       PRES   REMARKS
SIOUX FALLS    MOSUNNY   72  60  66 E12       29.94F
BROOKINGS      PTSUNNY   68  54  60 E16       29.97S
WATERTOWN      MOSUNNY   69  55  60 SE6       29.97R
HURON          LGT RAIN  71  67  87 E6        29.92R FOG
SISSETON         N/A     70  54  56 SE10      29.95S
ABERDEEN       MOSUNNY   75  64  68 E8        29.93R
MITCHELL       MOSUNNY   74  67  78 E10       29.92R
PIERRE         PTSUNNY   77  68  73 E6        29.89R
MOBRIDGE       MOSUNNY   79  65  62 NE6       29.91R
RAPID CITY     SUNNY     78  65  63 NE12      29.99R
$$

  *****  SOME WEATHER IN NEARBY STATES *****

CITY           SKY/WX    TMP DP  RH WIND       PRES   REMARKS
GLASGOW MT     PTSUNNY   72  50  45 N21G30    30.00R
GREAT FALLS MT SUNNY     79  52  38 NE13      30.09R
CHEYENNE WY    LGT RAIN  61  56  83 N10G22    30.23S
SCOTTSBLUFF NE CLOUDY    86  55  34 SE10      29.97F THUNDER
OMAHA NE       MOCLDY    78  68  71 E12       29.88R
DES MOINES IA  CLOUDY    72  58  61 E9        29.92R
DAVENPORT IA   CLOUDY    67  57  70 NE8       29.96R
CHICAGO IL     CLOUDY    57  50  77 NE10      29.99R
EAU CLAIRE WI  CLEAR     70  53  54 CALM      29.99R
LA CROSSE WI   CLEAR     68  52  56 NW3       29.98S
$$

  *****  SOME NATIONAL WEATHER *****

CITY           SKY/WX    TMP DP  RH WIND       PRES   REMARKS
LA GUARDIA NY  MOCLDY    80  57  45 W13       29.81R
RALEIGH NC     CLOUDY    81  70  69 SW8       29.94R
ATLANTA GA     LGT RAIN  71  68  90 W3        30.06F
NEW ORLEANS LA TSTM      77  73  87 SE8       30.08F
OKLAHOMA CITY  PTCLDY    89  70  53 S17       29.86R HX  94
ALBUQUERQUE NM PTSUNNY   94  47  20 SW8       30.01F HX  90
SALT LAKE CITY PTSUNNY   96  50  20 NW10      29.97F HX  93
LOS ANGELES CA CLOUDY    69  63  81 W9        29.89S
BOISE ID       MOSUNNY  101  41  12 NW12      29.90F HX  96
SEATTLE WA     SUNNY     90  55  30 N9        29.96F
$$

*** WEATHER ACROSS MANITOBA...SASKATCHEWAN AND ONTARIO ***
                ***ONTARIO***

CITY           SKY/WX    TMP DP  RH WIND       PRES   REMARKS
GERALDTON      MOCLDY    63  48  59 W3        29.97R
THUNDER BAY    NOT AVBL
SIOUX LOOKOUT  CLOUDY    66  61  82 S2        29.95S
TORONTO        PTCLDY    64  55  72 NW14      29.87R
BIG TROUT LK   SUNNY     68  48  49 SW2       29.91R
PICKLE LAKE    MOCLDY    63  55  77 SE8       29.92S
DRYDEN         PTSUNNY   72  57  60 N2        29.95R
KENORA         NOT AVBL
$$
                *** MANITOBA***

CITY           SKY/WX    TMP DP  RH WIND       PRES   REMARKS
BRANDON        CLOUDY    72  66  83 W6        29.92S
DAUPHIN        SUNNY     73  63  68 SW5       29.89R
ISLAND LAKE    MOSUNNY   73  54  49 SE5       29.88S
PILOT MOUND      N/A     68  63  83 S5          N/A
THE PAS        CLOUDY    72  59  64 SE3       29.89R SMOKE
THOMPSON       PTSUNNY   75  45  33 VRB2      29.86F
WINNIPEG       CLOUDY    73  63  68 S5        29.92S
LYNN LAKE      PTSUNNY   72  50  46 NW6       29.89R
CHURCHILL      PTSUNNY   72  45  37 S8        29.80F
GILLAM         PTSUNNY   73  48  40 S5        29.87S
$$
                ***SASKATCHEWAN***

CITY           SKY/WX    TMP DP  RH WIND       PRES   REMARKS
ESTEVAN        CLOUDY    70  63  78 NW5       29.96S SMOKE
KINDERSLEY     PTSUNNY   70  63  78 N13       29.99R
LLOYDMINSTER   CLOUDY    70  61  73 NW6       30.01R SMOKE
PRINCE ALBERT  CLOUDY    73  63  68 NW6       29.92R SMOKE
REGINA         CLOUDY    73  63  68 N3        29.95S
YORKTON        MOSUNNY   72  64  78 NW7       29.91S
N. BATTLEFORD  PTSUNNY   72  61  68 N5        29.98R
LA RONGE       CLOUDY    72  57  60 NE5       29.92S
SASKATOON      PTSUNNY   72  61  68 N6        29.96S
SWIFT CURRENT  CLOUDY    66  59  77 W14G20    30.01R
$$
NOTE: THESE ARE AUTOMATED STATIONS WITH LIMITED QUALITY CONTROL
      "FAIR" INDICATES FEW OR NO CLOUDS BELOW 12,000 FEET WITH NO
      SIGNIFICANT WEATHER AND/OR OBSTRUCTIONS TO VISIBILITY.
      SKY/WX - SKY CONDITION AND SIGNIFICANT WEATHER.
      TMP - AIR TEMPERATURE.    DP   - DEWPOINT TEMPERATURE.
      RH  - RELATIVE HUMIDITY.  PRES - PRESSURE.
      HX  - HEAT INDEX.         WCI  - WIND CHILL INDEX.
$



USA.gov is the U.S. government's official web portal to all federal, state and local government web resources and services.